(204147) = 2003 YB110 = 2006 HL33

Discovered at Socorro on 2003-12-23 by LINEAR.

Orbit

Orbit type: Main Belt

Note: WebGL enabled browser required.

epoch2024-03-31.0
epoch JD2460400.5
perihelion date2020-05-21.46137
perihelion JD2458990.96137
argument of perihelion (°)348.31060
ascending node (°)40.08924
inclination (°)9.55004
eccentricity0.0754061
perihelion distance (AU)2.9431525
Tisserand w.r.t. Jupiter3.2
ΔV w.r.t. Earth (km/sec)11.0
semimajor axis (AU)3.1831839
mean anomaly (°)244.61790
mean daily motion (°/day)0.17354470
aphelion distance (AU)3.423
period (years)5.68
P-vector [x]0.87784171
P-vector [y]0.45171621
P-vector [z]0.15920555
Q-vector [x]-0.46688192
Q-vector [y]0.73291101
Q-vector [z]0.49483606
absolute magnitude15.69
phase slope0.15
uncertainty0
referenceMPEC 2024-D64
observations used386
oppositions15
arc length (days)8508
first opposition used2000
last opposition used2023
residual rms (arc-secs)0.67
perturbers coarse indicatorM-v
perturbers precise indicator003Ek
first observation date used2000-03-03.0
last observation date used2023-06-19.0
computer nameMPCLINUX
JD of orbit computation2456966.892667
perihelion JD uncertainty (days)1.7093E-04
argument of perihelion uncertainty (°)3.7700E-05
ascending node uncertainty (°)2.1847E-05
inclination uncertainty (°)5.7900E-06
eccentricity uncertainty 6.5618E-08
perihelion distance uncertainty (AU)2.2097E-07
Minimum Orbit Intersection Distances (in AU)
for orbit epoch: 2460400.5, reference: E2024-D64
Mercury2.60505
Venus2.21869
Earth1.94928
Mars1.47965
Jupiter2.00587
Saturn5.99172
Uranus15.0923
Neptune26.8789

Observations

391 total observations over interval: 2000 03 03.483190 – 2023 06 19.309514
These data are available for download (format description).

Date (UT) J2000 RA J2000 Dec Magn Location Ref
2000 03 03.483190 13 21 11.836 -01 27 24.40 21.41 V 645 – Apache Point-Sloan Digital Sky Survey MPS 170832
2000 03 03.486662 13 21 11.748 -01 27 24.07 22.26   645 – Apache Point-Sloan Digital Sky Survey MPS 170832
2003 11 24.27003 04 50 30.92 +29 38 26.6 20.0   704 – Lincoln Laboratory ETS, New Mexico MPS 96409
2003 11 24.28268 04 50 30.21 +29 38 28.0 19.6   704 – Lincoln Laboratory ETS, New Mexico MPS 96409
2003 11 24.29513 04 50 29.53 +29 38 28.8 19.9   704 – Lincoln Laboratory ETS, New Mexico MPS 96409
2003 11 24.30804 04 50 28.73 +29 38 30.1 19.7   704 – Lincoln Laboratory ETS, New Mexico MPS 96409
2003 12 23.22178 04 23 39.95 +29 47 28.9 19.6   704 – Lincoln Laboratory ETS, New Mexico MPS 95912
2003 12 23.23506 04 23 39.36 +29 47 28.4 19.9   704 – Lincoln Laboratory ETS, New Mexico MPS 95912
2003 12 23.24804 04 23 38.69 +29 47 28.0 20.0   704 – Lincoln Laboratory ETS, New Mexico MPS 95912
2003 12 23.26091 04 23 38.04 +29 47 26.8 19.9   704 – Lincoln Laboratory ETS, New Mexico MPS 95912
2003 12 25.10527 04 22 13.66 +29 46 00.0 20.2 V 691 – Steward Observatory, Kitt Peak-Spacewatch MPS 95912
2003 12 25.13283 04 22 12.38 +29 45 59.0 20.2 V 691 – Steward Observatory, Kitt Peak-Spacewatch MPS 95912
2003 12 25.16044 04 22 11.11 +29 45 57.8 20.2 V 691 – Steward Observatory, Kitt Peak-Spacewatch MPS 95912
2005 02 04.277107 10 37 35.807 +22 28 55.96 21.02 V 645 – Apache Point-Sloan Digital Sky Survey MPS 390259
2005 02 04.280579 10 37 35.653 +22 28 56.94 21.77   645 – Apache Point-Sloan Digital Sky Survey MPS 390259
2006 03 25.40920 14 32 51.23 -12 36 45.5 20.9 V 691 – Steward Observatory, Kitt Peak-Spacewatch MPS 170832
2006 03 25.42649 14 32 50.68 -12 36 45.3 21.2 V 691 – Steward Observatory, Kitt Peak-Spacewatch MPS 170832
2006 03 25.44379 14 32 50.18 -12 36 44.6 21.0 V 691 – Steward Observatory, Kitt Peak-Spacewatch MPS 170832
2006 04 07.34760 14 25 12.37 -12 21 48.3 20.8 V 691 – Steward Observatory, Kitt Peak-Spacewatch MPS 170832
2006 04 07.36493 14 25 11.65 -12 21 46.8 20.8 V 691 – Steward Observatory, Kitt Peak-Spacewatch MPS 170832
2006 04 07.38225 14 25 10.89 -12 21 45.2 20.6 V 691 – Steward Observatory, Kitt Peak-Spacewatch MPS 170832
2006 04 19.35323 14 16 15.81 -12 01 01.4 20.2 V G96 – Mt. Lemmon Survey MPS 169997
2006 04 19.36199 14 16 15.38 -12 01 00.3 19.9 V G96 – Mt. Lemmon Survey MPS 169997
2006 04 19.37074 14 16 14.98 -12 00 59.1 20.4 V G96 – Mt. Lemmon Survey MPS 169997
2006 04 19.37934 14 16 14.55 -12 00 58.5 20.1 V G96 – Mt. Lemmon Survey MPS 169997
2006 04 26.23115 14 10 46.04 -11 47 40.1 20.4 V 691 – Steward Observatory, Kitt Peak-Spacewatch MPS 169997
2006 04 26.25541 14 10 44.83 -11 47 37.4 20.4 V 691 – Steward Observatory, Kitt Peak-Spacewatch MPS 169997
2006 04 26.27282 14 10 43.97 -11 47 35.1 20.6 V 691 – Steward Observatory, Kitt Peak-Spacewatch MPS 169997
2006 05 23.18368 13 51 29.26 -11 05 48.0 20.7 V G96 – Mt. Lemmon Survey MPS 172024
2006 05 23.18985 13 51 29.05 -11 05 47.8 20.7 V G96 – Mt. Lemmon Survey MPS 172024
2006 05 23.19586 13 51 28.83 -11 05 47.1 20.8 V G96 – Mt. Lemmon Survey MPS 172024
2006 05 23.20201 13 51 28.62 -11 05 46.8 20.6 V G96 – Mt. Lemmon Survey MPS 172024
2008 10 03.28385 00 49 52.14 -02 30 25.2 19.7 V G96 – Mt. Lemmon Survey MPS 257885
2008 10 03.28749 00 49 51.96 -02 30 25.6 19.8 V G96 – Mt. Lemmon Survey MPS 257885
2008 10 03.29118 00 49 51.78 -02 30 26.1 19.7 V G96 – Mt. Lemmon Survey MPS 257885
2008 10 03.29478 00 49 51.60 -02 30 26.6 19.9 V G96 – Mt. Lemmon Survey MPS 257885
2008 10 27.16708 00 31 47.02 -02 59 58.7 20.3 V G96 – Mt. Lemmon Survey MPS 261465
2008 10 27.17196 00 31 46.84 -02 59 58.8 20.3 V G96 – Mt. Lemmon Survey MPS 261465
2008 10 27.18183 00 31 46.45 -02 59 58.3 20.1 V G96 – Mt. Lemmon Survey MPS 261465
2008 12 31.07848 00 35 14.71 +01 29 25.3 21.4 V G96 – Mt. Lemmon Survey MPS 270101
2008 12 31.08461 00 35 14.89 +01 29 27.8 21.7 V G96 – Mt. Lemmon Survey MPS 270101
2008 12 31.09071 00 35 15.25 +01 29 31.2 20.9 V G96 – Mt. Lemmon Survey MPS 270101
2008 12 31.09681 00 35 15.43 +01 29 32.8 20.4 V G96 – Mt. Lemmon Survey MPS 270101
2010 03 18.457603 06 18 16.37 +33 18 20.8   C51 – WISE MPS 320533
2010 03 18.589909 06 18 21.54 +33 17 59.5   C51 – WISE MPS 337096
2010 03 18.72221 06 18 27.11 +33 17 40.6   C51 – WISE MPS 320533
2010 03 18.788428 06 18 29.683 +33 17 30.84   C51 – WISE MPS 903470
2010 03 18.854517 06 18 32.44 +33 17 18.7   C51 – WISE MPS 320533
2010 03 18.854645 06 18 32.53 +33 17 17.9   C51 – WISE MPS 320533
2010 03 18.920733 06 18 35.12 +33 17 07.8   C51 – WISE MPS 337096
2010 03 18.986948 06 18 37.90 +33 16 59.5   C51 – WISE MPS 320533
2010 03 19.053037 06 18 40.63 +33 16 48.2   C51 – WISE MPS 320533
2010 03 19.119252 06 18 43.30 +33 16 36.7   C51 – WISE MPS 320533
2010 03 19.185340 06 18 46.05 +33 16 27.5   C51 – WISE MPS 337096
2010 03 19.317645 06 18 51.49 +33 16 06.7   C51 – WISE MPS 371242
2010 03 19.31777 06 18 51.51 +33 16 06.8   C51 – WISE MPS 320533
2010 03 19.450076 06 18 57.00 +33 15 46.6   C51 – WISE MPS 337096
2010 03 19.582380 06 19 02.50 +33 15 25.8   C51 – WISE MPS 337096
2011 03 09.32499 11 46 47.89 +12 38 15.1 21.2 V G96 – Mt. Lemmon Survey MPS 374652
2011 03 09.33194 11 46 47.56 +12 38 16.5 20.6 V G96 – Mt. Lemmon Survey MPS 374652
2011 03 09.33896 11 46 47.24 +12 38 17.8 20.4 V G96 – Mt. Lemmon Survey MPS 374652
2011 03 09.34596 11 46 46.92 +12 38 19.9 20.9 V G96 – Mt. Lemmon Survey MPS 374652
2011 03 31.29682 11 30 01.768 +13 38 42.46 21.6 g F51 – Pan-STARRS 1, Haleakala MPS 378438
2011 03 31.30869 11 30 01.251 +13 38 43.46 21.2 i F51 – Pan-STARRS 1, Haleakala MPS 378438
2011 03 31.31992 11 30 00.770 +13 38 44.36 21.1 i F51 – Pan-STARRS 1, Haleakala MPS 378438
2011 04 02.30281 11 28 39.163 +13 41 24.79 21.9 w F51 – Pan-STARRS 1, Haleakala MPS 378438
2011 04 02.31795 11 28 38.537 +13 41 26.08 21.5 w F51 – Pan-STARRS 1, Haleakala MPS 378438
2011 04 02.33410 11 28 37.858 +13 41 27.11 21.7 w F51 – Pan-STARRS 1, Haleakala MPS 378438
2011 04 02.34921 11 28 37.240 +13 41 28.37 21.6 w F51 – Pan-STARRS 1, Haleakala MPS 378438
2012 05 14.41236 15 31 36.157 -22 47 03.24 19.8 r F51 – Pan-STARRS 1, Haleakala MPS 424758
2012 05 14.42266 15 31 35.617 -22 47 02.89 19.8 r F51 – Pan-STARRS 1, Haleakala MPS 424758
2012 05 14.43384 15 31 35.021 -22 47 02.46 20.2 g F51 – Pan-STARRS 1, Haleakala MPS 424758
2012 05 14.44476 15 31 34.441 -22 47 01.95 20.2 g F51 – Pan-STARRS 1, Haleakala MPS 424758
2012 05 20.38340 15 26 29.073 -22 42 12.16 20.0 w F51 – Pan-STARRS 1, Haleakala MPS 425815
2012 05 20.39800 15 26 28.303 -22 42 11.33 19.9 w F51 – Pan-STARRS 1, Haleakala MPS 425815
2012 05 20.41261 15 26 27.538 -22 42 10.58 19.9 w F51 – Pan-STARRS 1, Haleakala MPS 425815
2012 05 20.42716 15 26 26.766 -22 42 09.78 20.0 w F51 – Pan-STARRS 1, Haleakala MPS 425815
2014 09 23.41551 02 54 26.63 +14 32 53.0   691 – Steward Observatory, Kitt Peak-Spacewatch MPS 535738
2014 09 23.43688 02 54 26.22 +14 32 54.7   691 – Steward Observatory, Kitt Peak-Spacewatch MPS 535738
2014 09 23.45875 02 54 25.80 +14 32 55.7   691 – Steward Observatory, Kitt Peak-Spacewatch MPS 535738
2014 09 30.41468 02 51 50.05 +14 38 09.9 20.2 V 703 – Catalina Sky Survey MPS 538299
2014 09 30.42695 02 51 49.69 +14 38 10.6 20.5 V 703 – Catalina Sky Survey MPS 538299
2014 10 02.39698 02 50 53.645 +14 39 01.45 19.8 i F51 – Pan-STARRS 1, Haleakala MPS 538299
2014 10 02.40920 02 50 53.271 +14 39 01.72 19.8 i F51 – Pan-STARRS 1, Haleakala MPS 538299
2014 10 02.42138 02 50 52.891 +14 39 02.10 19.8 i F51 – Pan-STARRS 1, Haleakala MPS 538299
2014 10 02.43358 02 50 52.503 +14 39 02.32 19.8 i F51 – Pan-STARRS 1, Haleakala MPS 538299
2014 10 13.34697 02 44 13.30 +14 38 53.8 19.7 V G96 – Mt. Lemmon Survey MPS 540070
2014 10 13.35323 02 44 13.03 +14 38 53.5 19.7 V G96 – Mt. Lemmon Survey MPS 540070
2014 10 13.35949 02 44 12.74 +14 38 53.6 19.4 V G96 – Mt. Lemmon Survey MPS 540070
2014 10 13.36577 02 44 12.47 +14 38 53.2 19.5 V G96 – Mt. Lemmon Survey MPS 540070
2014 10 15.23501 02 42 51.17 +14 38 06.4 19.9 V 691 – Steward Observatory, Kitt Peak-Spacewatch MPS 540070
2014 10 15.25539 02 42 50.22 +14 38 05.8 20.1 V 691 – Steward Observatory, Kitt Peak-Spacewatch MPS 540070
